Location: Unspecified
(0.0000°N, 0.0000°E)
Time: 19:52:41
(UTC+00:00)

ISS - Pass Details

Date: 15 June 2019
Orbit: 407 x 419 km, 51.6° (Epoch: 26 June)

Event Time Altitude Azimuth Distance (km) Brightness Sun altitude
Rises 18:42:20 0° 330° (NNW) 2,334 1.0 -9.6°
Reaches altitude 10° 18:44:25 10° 334° (NNW) 1,477 -0.2 -10.1°
Maximum altitude 18:47:42 60° 55° (NE) 479 -3.7 -10.8°
Enters shadow 18:50:09 17° 132° (SE) 1,153 -2.1 -11.4°
